Location: Wien
(48.2082°N, 16.3738°E)
Time: 22:43:57
(UTC+02:00)

Tiros 1 despin weight - Visible Passes

Search period start: 20 May 2025 00:00
Search period end: 30 May 2025 00:00
Orbit: 562 x 602 km, 48.2° (Epoch: 20 May)

Date Brightness Start Highest point End Pass type
(mag) Time Alt. Az. Time Alt. Az. Time Alt. Az.
20 May ? 02:15:54 11° SE 02:15:54 11° SE 02:16:39 10° ESE visible
20 May ? 03:52:12 15° SW 03:55:29 40° SSE 03:59:39 10° E visible
21 May ? 02:20:18 17° SE 02:20:18 17° SE 02:23:00 10° E visible
21 May ? 03:56:35 14° SW 04:00:17 53° SSE 04:04:38 10° E visible
22 May ? 02:24:39 24° SSE 02:24:51 24° SE 02:28:24 10° E visible
22 May ? 04:00:56 11° WSW 04:05:08 67° SSE 04:09:35 10° E visible
23 May ? 02:28:56 32° SSE 02:29:33 33° SSE 02:33:33 10° E visible
23 May ? 04:05:37 10° WSW 04:10:01 79° S 04:14:30 10° E visible
24 May ? 02:33:10 36° SSW 02:34:19 45° SSE 02:38:33 10° E visible
24 May ? 04:10:30 10° W 04:14:55 88° S 04:19:25 10° E visible
25 May ? 01:01:05 14° ESE 01:01:05 14° ESE 01:02:05 10° E visible
25 May ? 02:37:21 33° SW 02:39:07 59° SSE 02:43:30 10° E visible
25 May ? 04:15:25 10° W 04:19:51 89° N 04:24:20 10° E visible
26 May ? 01:05:12 22° ESE 01:05:12 22° ESE 01:07:21 10° E visible
26 May ? 02:41:29 25° WSW 02:43:58 72° SSE 02:48:24 10° E visible
26 May ? 04:20:19 10° W 04:24:46 89° S 04:29:14 10° E visible
27 May ? 01:09:15 33° ESE 01:09:15 33° ESE 01:12:24 10° E visible
27 May ? 02:45:31 17° WSW 02:48:51 83° S 02:53:18 10° E visible
28 May ? 01:13:12 50° SSE 01:13:12 50° SSE 01:17:21 10° E visible
28 May ? 02:49:28 11° W 02:53:44 90° SW 02:58:12 10° E visible
28 May ? 23:40:45 11° E 23:40:45 11° E 23:41:01 10° E visible
29 May ? 01:17:00 50° SW 01:17:53 64° SSE 01:22:16 10° E visible
29 May ? 02:54:14 10° W 02:58:38 89° N 03:03:05 10° E visible
29 May ? 23:44:18 21° ESE 23:44:18 21° ESE 23:46:10 10° E visible
